Location: Crab Orchard
(37.7292°N, 88.8042°W)
Time: 22:50:49
(UTC+00:00)

SL-4 R/B - Pass Details

Date: 08 December 2019
Orbit: 428 x 667 km, 51.6° (Epoch: 24 January)

Event Time Altitude Azimuth Distance (km) Brightness Sun altitude
Rises 23:40:21 0° 283° (WNW) 2,509 6.4 -12.4°
Reaches altitude 10° 23:43:13 10° 308° (NW) 1,680 4.9 -12.9°
Maximum altitude 23:45:27 15° 345° (NNW) 1,437 4.1 -13.4°
Enters shadow 23:47:44 10° 20° (NNE) 1,749 4.2 -13.8°
